{"data":{"norad_id":64478,"epoch":"2026-09-20T09:25:24.820896Z","epoch_age_seconds":140841,"freshness":"FRESH","line1":"1 64478U 25133G   26263.39264839  .00015876  00000+0  48003-3 0  9990","line2":"2 64478  53.1595 289.9206 0001366  88.7947 271.3212 15.34399469 71036","mean_motion":15.34399469,"eccentricity":0.0001366,"inclination_deg":53.1595,"raan_deg":289.9206,"arg_perigee_deg":88.7947,"mean_anomaly_deg":271.3212,"bstar":0.00048003,"rev_number":7103,"period_min":93.84779055864,"perigee_km":461.77035945906,"apogee_km":463.63927744386,"semimajor_km":6840.8418184515,"source":"CELESTRAK","updated_at":"2026-09-21T09:00:35.359269Z"}}